Location: Newark
(48.3453°N, 0.5589°E)
Time: 01:08:16
(UTC+00:00)

Vanguard 3 - Visible Passes

Search period start: 22 January 2021 00:00
Search period end: 01 February 2021 00:00
Orbit: 508 x 3262 km, 33.3° (Epoch: 21 January)

Date Brightness Start Highest point End Pass type
(mag) Time Alt. Az. Time Alt. Az. Time Alt. Az.
22 Jan 9.5 04:30:14 22° SSW 04:34:04 30° SSE 04:44:47 10° ESE visible
22 Jan 10.1 06:36:49 10° WSW 06:46:11 40° S 07:00:57 10° ESE visible
23 Jan 9.9 03:20:26 20° SE 03:20:26 20° SE 03:27:18 10° ESE visible
23 Jan 9.7 05:25:00 16° SW 05:31:25 36° S 05:43:58 10° ESE visible
24 Jan 9.4 04:15:09 26° S 04:17:14 29° SSE 04:26:54 10° ESE visible
24 Jan 10.0 06:20:39 10° WSW 06:29:09 37° S 06:42:39 10° SE visible
25 Jan 10.0 03:05:17 18° SE 03:05:17 18° SE 03:09:45 10° ESE visible
25 Jan 9.4 05:09:51 20° SW 05:14:34 34° S 05:25:53 10° ESE visible
26 Jan 9.3 03:59:59 27° SSE 04:00:31 27° SSE 04:09:06 10° ESE visible
26 Jan 9.8 06:04:36 10° WSW 06:12:14 33° S 06:24:18 10° SE visible
27 Jan 10.1 02:50:05 14° SE 02:50:05 14° SE 02:52:17 10° ESE visible
27 Jan 9.2 04:54:39 24° SSW 04:57:50 31° S 05:07:50 10° ESE visible
28 Jan 9.4 03:44:45 25° SSE 03:44:45 25° SSE 03:51:22 10° ESE visible
28 Jan 9.6 05:49:19 13° WSW 05:55:27 29° S 06:05:58 10° SE visible
29 Jan 10.4 02:34:52 10° ESE 02:34:52 10° ESE 02:34:55 10° ESE visible
29 Jan 9.1 04:39:26 25° SSW 04:41:12 27° S 04:49:50 10° SE visible
29 Jan 10.0 06:46:25 10° WSW 06:53:14 23° SSW 07:03:02 10° SSE visible
30 Jan 9.7 03:29:33 20° SE 03:29:33 20° SE 03:33:44 10° ESE visible
30 Jan 9.5 05:34:06 15° SW 05:38:45 25° S 05:47:35 10° SE visible
31 Jan 9.2 04:24:14 24° S 04:24:39 24° S 04:31:53 10° SE visible
31 Jan 9.9 06:30:54 10° WSW 06:36:29 18° SSW 06:44:05 10° SSE visible
